Portland, OR

12:05 PM PDT on July 26, 2017 (GMT -0700)
Portland International

Weather History for KPDX - November, 2013

Change the Weather History Date:

Saturday, November 2, 2013

  Actual Average Record
Temperature  
Mean Temperature 50 °F 50 °F  
Max Temperature 56 °F 57 °F 68 °F (1976)
Min Temperature 44 °F 43 °F 27 °F (2002)
Degree Days  
Heating Degree Days 15 15  
Month to date heating degree days 29 30  
Since 1 July heating degree days 468 448  
Cooling Degree Days 0 0  
Month to date cooling degree days 0 0  
Year to date cooling degree days 539 424  
Moisture  
Dew Point 46 °F    
Average Humidity 76    
Maximum Humidity 100    
Minimum Humidity 51    
Precipitation  
Precipitation 0.32 in 0.15 in 1.33 in (1984)
Month to date precipitation 0.64 0.30  
Year to date precipitation 22.69 25.21  
Snow  
Snow 0.00 in - - ()
Snow Depth 0.00 in    
Sea Level Pressure  
Sea Level Pressure 29.89 in    
Wind  
Wind Speed 12 mph (SSW)    
Max Wind Speed 24 mph    
Max Gust Speed 30 mph    
Visibility 7 miles    
Events Rain    
T = Trace of Precipitation, MM = Missing Value Source: NWS Daily Summary

Daily Weather History Graph

Daily Weather History Graph

Search for Another Location

Airport or City:

Trip Planner

Search our weather history database for the weather conditions in past years. The results will help you decide how hot, cold, wet, or windy it might be!

Date:

Astronomy

Nov. 02, 2013 Rise Set
Actual Time 7:51 AM PDT 5:55 PM PDT
Civil Twilight 7:20 AM PDT 6:26 PM PDT
Nautical Twilight 6:45 AM PDT 7:01 PM PDT
Astronomical Twilight 6:11 AM PDT 7:35 PM PDT
Moon 6:53 AM PDT (11/2) 5:31 PM PDT (11/2)
Length of Visible Light 11h 05m
Length of Day
10h 03m
Waning Crescent, 1% of the Moon is Illuminated
Nov 2
Waning Crescent
Nov 3
New
Nov 9
First Quarter
Nov 17
Full
Nov 25
Last Quarter

Hourly Weather History & Observations

Time (PDT) Temp. Windchill Dew Point Humidity Pressure Visibility Wind Dir Wind Speed Gust Speed Precip Events Conditions
12:28 AM 53.6 °F - 53.6 °F 100% 29.90 in 4.0 mi East 6.9 mph - 0.09 in Rain Rain
12:45 AM 53.6 °F - 53.6 °F 100% 29.90 in 4.0 mi SE 9.2 mph - 0.14 in Rain Light Rain
12:53 AM 53.1 °F - 53.1 °F 100% 29.88 in 4.0 mi ESE 10.4 mph - 0.17 in Rain Rain
1:11 AM 53.6 °F - 51.8 °F 94% 29.88 in 3.0 mi ESE 10.4 mph - 0.03 in Rain Light Rain
1:21 AM 53.6 °F - 51.8 °F 94% 29.86 in 3.0 mi ESE 11.5 mph - 0.03 in Rain Light Rain
1:43 AM 53.6 °F - 51.8 °F 94% 29.86 in 3.0 mi SSE 4.6 mph - 0.04 in   Overcast
1:53 AM 53.1 °F - 52.0 °F 96% 29.86 in 3.0 mi SSE 5.8 mph - 0.04 in Rain Light Rain
2:49 AM 53.6 °F - 51.8 °F 94% 29.83 in 3.0 mi South 4.6 mph - 0.05 in Rain Light Rain
2:53 AM 53.1 °F - 52.0 °F 96% 29.83 in 3.0 mi South 4.6 mph - 0.05 in Rain Light Rain
3:08 AM 53.6 °F - 51.8 °F 94% 29.83 in 3.0 mi South 5.8 mph - 0.02 in Rain Rain
3:30 AM 53.6 °F - 51.8 °F 94% 29.80 in 3.0 mi SSE 8.1 mph - 0.08 in Rain Light Rain
3:42 AM 53.6 °F - 51.8 °F 94% 29.79 in 3.0 mi SSE 8.1 mph - 0.10 in Rain Light Rain
3:53 AM 53.1 °F - 51.1 °F 93% 29.75 in 3.0 mi SSE 15.0 mph 21.9 mph 0.10 in Rain Light Rain
4:53 AM 53.1 °F - 51.1 °F 93% 29.78 in 3.0 mi South 9.2 mph 17.3 mph 0.10 in Rain Rain
5:10 AM 53.6 °F - 51.8 °F 94% 29.75 in 8.0 mi South 16.1 mph 21.9 mph 0.02 in Rain Light Rain
5:43 AM 53.6 °F - 50.0 °F 88% 29.74 in 10.0 mi South 18.4 mph - 0.03 in   Overcast
5:53 AM 53.1 °F - 50.0 °F 89% 29.73 in 10.0 mi South 19.6 mph 28.8 mph 0.03 in   Overcast
6:10 AM 53.6 °F - 50.0 °F 88% 29.74 in 9.0 mi South 16.1 mph 25.3 mph 0.00 in Rain Light Rain
6:53 AM 53.1 °F - 50.0 °F 89% 29.75 in 10.0 mi South 17.3 mph - 0.00 in   Mostly Cloudy
7:17 AM 53.6 °F - 50.0 °F 88% 29.75 in 10.0 mi SSW 19.6 mph 25.3 mph N/A   Mostly Cloudy
7:53 AM 53.1 °F - 48.9 °F 86% 29.78 in 10.0 mi SSW 16.1 mph 24.2 mph N/A   Mostly Cloudy
8:53 AM 53.1 °F - 46.9 °F 80% 29.83 in 10.0 mi SW 12.7 mph - N/A   Mostly Cloudy
9:53 AM 52.0 °F - 45.0 °F 77% 29.88 in 10.0 mi WSW 11.5 mph - N/A   Overcast
10:53 AM 53.1 °F - 46.0 °F 77% 29.92 in 10.0 mi SW 5.8 mph - 0.02 in   Partly Cloudy
11:53 AM 54.0 °F - 42.1 °F 64% 29.96 in 10.0 mi SW 15.0 mph - N/A   Overcast
12:53 PM 55.0 °F - 39.9 °F 57% 29.96 in 10.0 mi SW 16.1 mph 24.2 mph N/A   Overcast
1:53 PM 55.9 °F - 37.0 °F 49% 29.96 in 10.0 mi West 16.1 mph 25.3 mph N/A   Mostly Cloudy
2:53 PM 53.1 °F - 39.9 °F 61% 29.98 in 10.0 mi West 16.1 mph - 0.00 in   Scattered Clouds
3:53 PM 53.1 °F - 39.0 °F 59% 29.99 in 10.0 mi West 19.6 mph - N/A   Scattered Clouds
4:53 PM 52.0 °F - 37.9 °F 59% 30.02 in 9.0 mi West 18.4 mph - 0.00 in Rain Light Rain
5:53 PM 50.0 °F - 39.9 °F 68% 30.03 in 10.0 mi West 8.1 mph - 0.00 in   Mostly Cloudy
6:53 PM 48.9 °F - 39.0 °F 69% 30.04 in 10.0 mi WSW 9.2 mph - N/A   Mostly Cloudy
7:53 PM 48.0 °F - 39.0 °F 71% 30.04 in 10.0 mi WSW 11.5 mph 19.6 mph 0.00 in Rain Light Rain
8:53 PM 48.0 °F - 39.0 °F 71% 30.05 in 10.0 mi WSW 18.4 mph 23.0 mph 0.00 in   Overcast
9:53 PM 46.0 °F 41.9 °F 39.9 °F 79% 30.06 in 10.0 mi WSW 8.1 mph - 0.00 in   Mostly Cloudy
10:53 PM 46.0 °F 42.5 °F 37.9 °F 73% 30.06 in 10.0 mi West 6.9 mph - N/A   Mostly Cloudy
11:53 PM 44.1 °F - 39.9 °F 85% 30.06 in 10.0 mi Calm Calm - 0.00 in   Mostly Cloudy